Hourly Weather Roundup
Issued by NWS Central Illinois

Home | Current Version | Previous Version | Text Only | Print | Product List | Glossary On
Versions: 1 2 3 4 5 6 7 8 9 10 11 12 13 14 15 16 17 18 19 20 21 22 23 24 25 26 27 28 29 30 31 32 33 34 35 36 37 38 39 40 41 42 43 44 45 46 47 48 49 50
881
NZUS43 KILX 192010
HWRILX

AREA WEATHER ROUNDUP
NATIONAL WEATHER SERVICE, LINCOLN IL
200 PM CST THU JAN 19 2017


CITY           SKY/WX    TMP DP  RH WIND       PRES   REMARKS
BLOOMINGTON    LGT RAIN  41  40  96 E13       29.83F FOG     WCI  34
CHAMPAIGN      RAIN      42  40  92 E9        29.85F FOG
DANVILLE       LGT RAIN  43  38  85 E6        29.85F
DECATUR        RAIN      42  42 100 E13       29.81F FOG
EFFINGHAM      LGT RAIN  44  44 100 E8        29.81F
FLORA          DRIZZLE   46  44  93 E7        29.80F
GALESBURG      RAIN      40  40 100 E7        29.81F WCI  35
JACKSONVILLE   DRIZZLE   44  42  95 E7        29.79F
LACON          LGT RAIN  39  38  94 SE5       29.86S
LAWRENCEVILLE  LGT RAIN  46  43  89 NE5       29.84F
LITCHFIELD     RAIN      43  42  98 SE7       29.76F
$$


CITY           SKY/WX    TMP DP  RH WIND       PRES   REMARKS
LINCOLN        LGT RAIN  44  43  97 E7        29.81F
MACOMB         CLOUDY    41  41  99 E8        29.82F FOG
MATTOON        LGT RAIN  43  41  93 E10       29.81F FOG
MT CARMEL AP   LGT RAIN  46  43  90 E6        29.83F
OLNEY-NOBLE AP LGT RAIN  45  45 100 E9        29.82F
PARIS          RAIN      42  41  95 E6        29.86F
PEORIA         LGT RAIN  42  41  96 E7        29.84F FOG
PONTIAC        RAIN      41  41 100 SE5       29.89S
RANTOUL        LGT RAIN  44  41  91 E8        29.87F
SPRINGFIELD    CLOUDY    45  42  89 E9        29.80F FOG
TAYLORVILLE    LGT RAIN  43  42  97 SE10      29.78F
$$

...REGIONAL REPORTS...


CITY           SKY/WX    TMP DP  RH WIND       PRES   REMARKS
CHICAGO O`HARE CLOUDY    42  37  82 SE8       29.89F HAZE
KANKAKEE       CLOUDY    42  39  87 E9        29.89F
MOLINE         CLOUDY    41  37  86 E7        29.83F FOG
MOUNT STERLING DRIZZLE   43  42  96 E8        29.77F
MOUNT VERNON   CLOUDY    46  44  93 E6        29.78F
PITTSFIELD     CLOUDY    45  44  98 E8        29.76F FOG
QUINCY         NOT AVBL
ROCKFORD       CLOUDY    39  36  89 SE9       29.90F FOG     WCI  33
$$


CITY           SKY/WX    TMP DP  RH WIND       PRES   REMARKS
BURLINGTON     FOG       39  39 100 E10       29.77F VSB 1   WCI  32
CEDAR RAPIDS   LGT RAIN  37  37 100 E10       29.77F FOG     WCI  30
DES MOINES     DRZL/FOG  39  38  96 SE8       29.73F VSB 1/2 WCI  33
KIRKSVILLE     FOG       44  43  96 SE7       29.72F VSB 1/4
OTTUMWA        LGT RAIN  39  38  96 E9        29.74F VSB 1   WCI  33
ST LOUIS       LGT RAIN  47  44  90 E8        29.75F FOG
$$


CITY           SKY/WX    TMP DP  RH WIND       PRES   REMARKS
TERRE HAUTE    LGT RAIN  45  40  82 E5        29.86S
EVANSVILLE     LGT RAIN  49  44  83 E6        29.82F
INDIANAPOLIS   CLOUDY    45  39  79 E10       29.89F
LAFAYETTE      CLOUDY    44  39  82 E8        29.89F
MADISON        PTSUNNY   36  34  92 VRB5      29.88F FOG     WCI  32
MILWAUKEE      FOG       36  33  89 SE6       29.91F VSB 1/4 WCI  31
$$






USA.gov is the U.S. government's official web portal to all federal, state and local government web resources and services.